RH
27 30 34 30 26 25 27 28 29 25 21 23 23 23 20 16 17 18 17 16 16 17 16 15 18 19 28 51 56 56 66 72 70 69 74 82 83 78 73 67 70 71 70 72
29 37 32 29 31 30 30 31 30 26 24 24 24 24 20 24 28 29 29 28 28 28 26 27 30 28 28 27 58 59 61 67 72 63 64 63 66 66 66 66 69 71 72 72
36 34 32 31 35 31 36 34 35 34 28 26 23 23 38 30 28 28 29 30 30 32 33 32 34 37 38 41 42 58 61 62 68 65 62 63 58 62 69 69 69 69 71 71
35 33 35 34 33 34 34 30 32 34 33 29 26 31 46 38 36 35 34 33 33 32 32 31 33 35 35 41 49 51 55 62 64 67 62 67 60 59 56 60 60 62 69 71
38 38 39 36 36 36 30 31 35 36 33 32 37 30 51 43 48 44 40 37 35 35 35 34 33 32 32 36 44 53 57 52 63 66 66 65 64 52 47 52 60 66 66 72
45 36 36 38 36 33 32 38 41 41 37 31 47 37 59 55 50 44 41 41 37 36 36 35 34 33 33 36 44 47 52 59 55 66 70 69 69 61 54 55 59 59 59 65
41 40 39 40 29 30 38 42 33 28 31 34 45 54 66 47 42 42 44 42 42 39 40 38 36 36 38 42 45 44 45 51 62 66 70 70 69 69 65 62 61 60 58 61
38 34 46 40 36 40 42 52 45 46 35 44 49 56 54 42 38 41 46 46 45 43 44 42 39 38 38 42 44 46 47 47 52 68 71 71 66 61 62 60 58 60 59 61
39 40 40 37 37 37 50 56 54 70 73 65 52 52 45 35 38 46 50 49 48 46 46 48 42 41 39 41 44 49 46 45 50 54 59 80 72 69 64 67 65 62 65 61
62 34 48 36 36 38 49 47 67 67 65 54 53 69 53 46 54 51 51 48 45 39 37 41 39 38 41 38 38 46 46 44 47 54 54 60 78 86 74 70 71 68 68 71
51 46 41 38 35 40 45 48 63 68 73 67 60 53 45 58 59 53 48 42 39 37 36 34 31 31 37 36 38 43 46 45 48 49 58 58 63 73 79 87 90 79 76 72
49 50 41 39 39 32 50 52 54 52 67 58 64 53 45 54 47 46 46 41 38 37 36 33 31 34 33 36 38 42 45 45 45 43 48 59 59 66 73 75 76 82 92 96
48 58 42 57 50 48 60 49 48 51 59 60 61 42 41 37 47 44 46 42 39 39 38 34 33 33 35 40 41 45 45 45 48 43 46 52 56 60 64 66 72 70 68 70
47 48 41 30 44 53 57 54 50 45 68 58 52 39 38 30 46 49 45 43 39 40 40 37 38 38 42 43 44 46 47 47 46 49 48 52 56 57 58 59 60 64 61 58
54 64 58 50 47 52 47 44 50 52 47 52 30 30 30 38 46 52 46 42 40 40 39 42 43 44 44 44 43 45 48 49 48 49 58 58 57 55 56 57 57 57 61 60
51 57 56 62 48 47 47 41 45 46 43 44 43 45 45 54 53 52 46 45 45 43 43 44 44 44 47 46 44 43 46 50 49 54 58 69 66 64 64 62 62 60 61 60
53 56 64 61 53 54 73 56 46 45 44 45 53 46 54 58 56 54 50 47 46 47 48 48 48 50 50 47 46 49 50 50 54 51 52 60 67 72 71 67 64 66 67 68
60 58 64 73 60 71 39 56 44 52 58 56 57 48 51 53 54 50 44 47 45 51 52 51 50 54 50 47 49 51 50 51 57 53 53 55 63 68 71 71 72 71 67 72
54 56 86 82 73 50 48 50 59 58 55 48 49 49 51 54 53 42 41 44 52 55 56 55 56 53 50 50 52 53 53 52 52 54 57 58 61 62 63 67 73 73 75 70
58 54 70 90 84 68 38 58 47 49 62 47 48 54 55 50 48 37 44 52 56 54 55 61 58 54 53 55 54 55 55 54 55 62 62 59 61 62 63 63 70 73 71 67
75 71 83 81 86 65 44 48 50 66 47 46 47 48 53 52 44 42 51 57 57 58 60 57 56 59 60 58 56 56 53 52 56 59 61 61 58 60 60 62 64 68 72 71
68 80 84 73 89 87 50 48 59 51 47 41 52 50 53 50 52 54 57 57 58 60 59 57 61 64 63 61 57 56 51 51 52 56 58 59 60 57 53 64 67 68 71 79
74 56 73 65 61 48 47 50 45 40 42 45 51 44 47 55 54 59 61 63 65 62 60 59 59 61 60 59 56 56 55 53 55 58 63 64 64 62 61 67 70 73 72 78
55 53 58 55 47 49 47 43 40 40 43 40 45 45 49 56 61 63 65 64 62 57 55 51 56 60 63 59 56 56 53 52 57 66 70 70 70 72 70 68 72 77 81 84
50 53 50 50 48 48 45 43 42 40 44 44 45 48 47 54 61 66 64 64 62 57 55 53 58 65 64 60 60 56 55 56 65 71 71 74 72 76 76 73 75 77 76 80
53 49 48 46 43 41 41 43 44 45 45 44 47 50 61 63 64 65 61 62 60 59 58 55 63 63 64 64 64 61 59 64 72 78 78 80 82 82 80 78 77 77 81 81
Wind_Speed
8 12 11 9 9 8 6 3 2 3 6 13 14 15 13 17 18 23 23 21 21 23 22 19 16 13 12 16 19 21 20 21 16 14 13 13 14 13 13 13 16 16 15 16
7 15 3 6 6 6 3 2 5 6 5 6 11 9 21 22 23 23 24 23 23 24 24 24 24 20 16 16 18 19 21 20 20 15 14 12 13 13 13 12 15 17 18 17
10 3 5 10 9 8 2 3 2 4 11 4 5 7 22 21 26 27 28 26 27 25 26 26 26 23 20 19 19 18 19 20 20 21 13 11 9 10 11 14 14 16 19 18
9 4 6 9 7 2 2 1 3 7 6 6 7 4 19 19 23 26 26 25 26 27 26 26 27 26 26 22 19 17 16 19 19 20 16 19 17 15 16 13 13 14 18 19
4 4 6 6 5 1 2 6 5 3 1 1 11 3 9 18 20 22 22 25 25 24 24 26 26 25 25 23 21 18 18 16 19 19 21 16 19 15 11 11 15 17 16 19
4 2 3 2 2 1 9 1 3 2 1 5 6 1 8 9 14 17 18 18 20 21 22 24 24 24 24 23 24 22 23 16 15 19 21 22 22 19 13 14 14 13 13 13
3 3 1 3 2 2 7 3 2 2 3 3 5 6 3 7 7 12 16 19 18 18 19 22 25 25 26 27 25 23 26 25 24 17 19 22 21 18 19 15 12 12 11 12
3 4 3 5 2 2 4 3 2 3 2 3 3 3 4 5 9 9 13 14 15 15 18 20 22 21 22 24 24 25 27 27 27 25 14 15 18 12 12 14 11 10 11 12
3 3 2 2 1 2 2 4 3 4 2 2 1 2 9 10 12 12 13 13 17 19 18 19 21 21 19 21 24 23 25 24 25 23 20 20 12 15 13 14 13 11 12 11
2 4 3 4 1 5 3 2 3 2 3 2 3 2 0 9 11 10 13 15 16 18 20 19 19 20 17 18 18 22 22 23 22 20 19 19 20 19 11 12 13 14 12 13
2 1 1 1 3 2 3 2 3 3 1 1 3 2 2 3 5 7 9 11 13 15 16 16 17 18 16 18 16 18 21 20 22 20 17 17 17 19 17 17 14 10 11 14
2 3 3 2 4 2 2 3 2 2 4 1 2 3 5 3 4 6 7 9 11 13 15 16 17 16 18 18 18 18 18 19 17 18 18 17 16 15 16 14 16 17 14 8
5 2 4 3 3 1 2 3 4 4 2 7 3 2 7 6 7 6 6 7 9 12 15 15 17 18 19 16 19 18 16 18 18 17 17 17 18 16 17 18 16 14 15 15
2 3 3 2 4 3 5 7 5 3 4 3 11 11 12 13 10 9 7 7 9 9 12 15 15 16 14 15 14 14 14 16 17 17 17 17 18 18 15 15 16 16 15 14
4 4 3 6 7 5 7 10 10 12 10 9 1 7 11 12 10 6 5 7 9 11 12 13 15 16 17 17 17 15 15 16 18 17 16 18 18 16 16 16 16 16 14 13
2 3 1 3 0 4 10 13 13 15 15 18 17 18 3 3 3 5 6 8 11 11 13 13 14 16 17 19 17 17 17 16 17 16 16 16 18 18 17 17 17 15 16 16
5 5 3 1 0 5 9 10 16 9 10 10 9 4 1 3 5 7 9 8 11 11 12 14 16 14 15 17 16 17 16 16 15 16 15 12 13 16 16 17 17 17 16 15
7 6 3 1 1 4 2 1 8 9 6 9 4 3 2 4 6 9 8 8 12 10 12 14 14 14 15 14 16 17 17 16 15 17 17 17 16 14 13 16 16 15 14 14
3 4 3 2 3 6 5 7 7 8 8 8 5 4 3 3 7 8 5 5 8 8 10 11 11 13 13 14 14 16 18 17 17 18 17 17 17 16 16 14 13 15 14 14
5 3 2 3 3 6 1 6 7 6 8 12 8 4 3 2 6 8 6 10 7 8 10 10 13 13 13 14 14 14 15 17 18 18 19 20 19 17 18 18 16 14 12 14
7 5 9 4 4 9 6 10 7 4 1 7 6 4 6 6 6 11 11 6 6 8 9 12 13 12 13 14 14 15 16 16 18 19 19 18 19 19 19 18 16 16 15 16
10 10 7 7 5 11 11 8 8 4 6 4 7 5 6 9 11 10 6 6 8 10 13 13 12 13 13 13 14 16 17 18 19 20 21 21 20 17 15 18 16 16 15 14
8 7 8 12 7 2 16 1 5 6 5 4 7 6 4 7 7 5 5 7 8 10 11 10 11 14 13 13 14 16 18 19 19 21 21 20 20 19 18 19 18 15 14 13
5 5 3 5 7 11 12 6 6 4 4 4 6 7 5 8 5 5 4 6 8 8 9 10 12 13 15 14 16 15 17 18 19 19 18 17 17 18 18 14 14 13 12 11
2 10 8 6 6 2 7 12 8 5 6 8 7 7 8 7 4 2 5 6 7 8 10 10 10 12 14 14 16 15 16 17 17 17 17 17 14 16 16 14 13 13 14 15
8 8 8 9 8 4 4 8 9 9 8 9 8 6 4 5 3 2 4 4 6 8 9 10 11 12 14 15 15 16 16 17 16 16 14 14 14 14 14 15 15 16 21 24
Wind_Direction
25 74 62 56 64 114 119 106 325 290 332 352 8 358 6 346 356 353 347 344 342 338 336 335 334 326 291 229 214 207 200 202 198 204 200 200 210 216 218 221 218 217 217 212
74 64 45 102 83 103 115 104 23 290 320 360 1 54 24 24 25 23 17 13 8 0 359 2 359 359 349 319 234 218 210 203 201 203 207 208 206 214 212 217 222 217 215 214
89 86 79 81 55 62 68 51 12 331 317 108 22 53 26 22 31 27 25 20 22 19 11 9 8 6 4 356 341 250 225 214 210 210 204 208 212 222 210 212 215 216 217 214
72 9 86 66 55 17 68 258 332 320 341 29 351 80 29 19 23 19 13 13 12 13 16 17 13 11 6 0 347 333 286 228 217 210 207 206 209 206 215 213 213 213 215 219
97 54 60 57 6 280 250 294 293 273 217 190 48 74 20 15 5 2 4 13 13 14 17 19 17 14 8 7 359 348 340 296 228 211 213 210 216 224 218 213 215 212 209 211
64 6 43 335 328 319 309 52 88 69 74 53 24 336 48 19 355 344 359 1 10 7 11 12 8 6 8 14 5 359 1 354 295 221 211 215 220 223 220 215 209 209 212 206
24 37 313 14 41 34 17 52 102 81 49 51 8 75 118 3 354 7 8 3 4 6 5 11 11 8 3 7 2 358 5 8 352 243 220 220 223 226 231 225 224 222 221 220
138 168 5 360 61 338 357 7 77 121 34 330 338 104 115 12 2 2 14 14 354 4 7 12 13 9 7 358 359 1 2 8 8 4 259 226 228 227 229 233 228 229 227 225
137 97 324 36 4 278 28 60 353 91 52 270 20 81 256 5 5 15 10 5 3 7 8 6 14 11 5 8 359 360 0 0 5 9 14 359 243 233 235 232 231 228 226 225
108 119 21 328 323 71 45 45 136 84 168 231 184 205 218 359 359 5 16 11 7 12 12 13 16 3 12 0 8 0 3 1 357 356 20 20 8 354 273 238 229 231 232 225
102 19 111 285 26 39 55 72 84 105 1 197 294 176 111 33 17 25 16 16 16 13 13 15 10 4 17 2 6 7 359 359 355 358 2 11 18 6 7 18 351 283 242 221
73 105 98 36 321 265 92 95 63 236 161 169 239 256 103 93 59 35 25 11 11 10 9 7 7 4 10 4 342 12 359 350 356 354 357 5 10 5 352 11 5 2 352 321
167 136 118 102 119 141 167 132 116 107 129 215 215 215 164 23 20 18 12 19 7 359 1 3 5 6 4 352 355 358 354 345 348 354 357 2 4 4 360 356 349 353 2 357
135 178 242 188 87 116 163 179 163 167 199 214 235 271 271 326 338 335 350 354 356 359 356 356 357 356 354 354 359 358 334 348 349 352 355 356 5 357 358 350 351 340 354 352
162 196 213 259 249 234 241 228 217 225 226 222 214 252 292 301 302 303 312 336 346 350 357 360 352 348 349 354 349 346 346 342 347 342 356 354 349 352 350 349 348 340 346 344
153 143 124 286 312 236 249 244 232 235 241 248 260 274 272 272 304 306 295 317 330 337 345 350 351 347 345 345 348 344 342 340 338 347 354 347 343 342 346 345 340 342 343 341
148 147 147 240 58 311 273 234 208 200 198 212 220 232 225 279 313 323 314 309 320 327 341 345 345 346 343 341 343 341 340 337 341 343 342 344 335 332 341 336 335 340 337 335
142 144 144 219 328 239 92 123 178 205 208 207 213 194 240 286 300 298 303 287 318 335 341 340 340 340 340 342 338 336 340 341 339 340 339 340 336 331 321 321 336 323 320 327
156 154 136 194 221 305 223 207 173 189 214 200 206 226 259 299 307 289 310 331 326 332 335 334 338 335 335 341 340 334 333 339 338 339 333 329 324 324 320 314 317 306 319 317
156 150 141 162 210 239 127 160 139 145 254 184 201 218 238 314 290 313 320 327 331 339 338 336 334 330 332 339 337 334 335 334 336 335 327 325 324 323 319 318 312 303 292 291
153 187 211 197 239 280 212 160 153 191 182 164 187 223 233 250 278 308 307 311 335 333 331 332 329 326 330 335 335 333 334 338 333 327 321 320 322 320 315 311 307 305 308 299
167 165 183 189 205 258 168 141 203 138 140 174 198 224 258 277 288 296 301 330 339 335 333 335 328 328 330 334 335 331 331 330 328 327 323 320 320 318 310 307 305 303 297 291
194 195 178 196 208 206 183 189 153 149 144 180 201 222 303 288 279 303 324 336 334 332 333 333 328 325 326 330 332 327 327 326 325 324 322 321 317 314 311 309 304 301 303 301
215 176 210 180 201 211 208 209 179 177 212 237 236 241 298 280 279 297 318 329 327 329 325 330 326 324 322 326 328 328 328 327 326 318 315 314 311 308 305 303 299 293 295 290
179 158 175 253 246 234 233 223 216 222 242 227 240 235 274 265 243 275 311 318 316 322 326 327 326 322 318 321 323 327 330 328 323 314 313 310 309 305 300 290 289 290 290 283
188 171 181 219 179 174 160 187 174 191 216 234 244 241 226 206 198 221 281 309 321 326 324 325 326 320 322 322 325 327 331 330 320 315 315 313 312 309 306 306 304 282 273 275